International Skating Union - Official Site

ISU Junior World Cup Collalbo
January 21-22, 2017

Draw | Lap Times | Index | World Cup

Referee: Debora  SIGHEL  (ITA)
Starter: Giovanni  TALAMINI  (ITA)
StartTime: EndTime: Air Temp: Ice Temp: Humidity:
15:45 15:54 4℃ -7.2℃ 64%
Result Mass Start Ladies
Rankings as of Feb 7 2017 4:10PM
Rank: No.: Name: Nation: Time: Behind: Points:
1 49 Elisa  Dul NED NED 5:57.80 100
2 44 Miryeong  Jeon KOR KOR 5:58.35 0.55 80
3 50 Sanne  In 't Hof NED NED 5:58.70 0.90 70
4 1 Viola   Feichtner AUT AUT 6:04.81 7.01 60
5 57 Natalia  Jabrzyk POL POL 6:02.43 4.63 50
6 8 Yauheniya   Varabyova BLR BLR 6:03.71 5.91 44
7 43 Da Som  Hwang KOR KOR 5:58.79 0.99 40
8 55 Karolina  Bosiek POL POL 5:58.89 1.09 36
9 37 Deborah  Grisenti ITA ITA 5:59.75 1.95 32
10 9 Xiangyu  Chen CHN CHN 6:00.78 2.98 28
11 19 Natálie  Kerschbaummayr CZE CZE 6:00.87 3.07 24
12 71 Jasmin  Güntert SUI SUI 6:01.84 4.04 20
13 2 Viktoria  Schinnerl AUT AUT 6:02.57 4.77 18
14 23 Kristiine  Kalev EST EST 6:02.58 4.78 16
15 6 Polina  Polukarova BLR BLR 6:02.68 4.88 14
16 29 Ellia  Smeding GBR GBR 6:03.22 5.42 12
17 28 Anni   Käsnänen FIN FIN 6:03.79 5.99 10
18 70 Séverine  Biermann SUI SUI 6:06.87 9.07 8
19 40 Linda  Rossi ITA ITA 6:23.67 25.87 6
20 5 Hanna  Nifantava BLR BLR 6:37.77 39.97 5
21 10 Weiping  Gan CHN CHN 4:57.58 -60.22 4